Showing default

IRIDIUM 156, 43576

Orbit data source: Space-Track

IRIDIUM 156, 43576 is a payload satellite owned by Iridium (US) in LEO that was launched on Wed, 25 Jul 2018 UTC via an FALCON 9 launch vehicle from the Air Force Western Test Range (AFWTR). Payloads include a variety of satellites, spacecraft, and rockets equipped with specific instruments for various scientific and technological missions. These include communications satellites like Starlink; space stations such as the ISS; scientific satellites like the Hubble; Earth observation satellites from companies like Planet Labs, Umbra, and HawkEye 360; GPS; miniature CubeSats for education and research; and military/defense satellites.

Loading next visibility...
IRIDIUM 156 details
Identifier
43576, 2018-061H
Orbit
LEO
Last TLE update20 hours ago
Origin
Flag of USIridium (US)
ManufacturerNGIS SSG Gilbert
MissionOperational Commercial Communications
Bus & MotorELITEBUS, Unknown motor
Mass860 kg wet, 700 kg dry
Launch date (UTC)
2018-07-25 (6 years ago)
Launch vehicle
FALCON 9
Launch site
Air Force Western Test Range (AFWTR)
Object type
Payload
Rocket body
Debris
Shape & HBRTrap Box + 2 Pan, 9.4 m
Radar Cross Section14.423 m², Large (>1 m²)

Expand to show TLE details & history

TLE from 20 hours ago
0 IRIDIUM 156
1 43576U 18061H   24361.06262025  .00000202  00000-0  65170-4 0  9997
2 43576  86.3965 281.5841 0001865  88.1390 272.0020 14.34220576336247
Epoch: 2024-12-26T01:30Z
Definitive object data (Epoch: 2024-12-26T01:30:10.389Z)
Latitude0.00003°
Longitude163.99341°
Altitude780.662 km
Speed7.464 km/s
True Right ascension18h 46m 20s
True Declination0° 00' 00"
Sunlit
Object was in daylight at TLE epoch
Visualization TLE readout
Latitude-78.51022°
Longitude145.70047°
Altitude806.908 km
Speed7.448 km/s
Apparent Right ascension09h 35m 50s
Apparent Declination-70° 00' 55"
Sunlit
Object is in daylight
Visualization observer readout
Local Sidereal Time20:36:38
Azimuth189.737° SSW
Elevation-58.922°
Doppler factor1
Orbital elements
Apogee altitude775.956 km
Perigee altitude773.288 km
Semi-major axis7,152.759 km
Eccentricity0.0001865
Inclination86.3965°
RAAN281.5841°
Arg. of periapsis88.139°
True anomaly271.98064°
Mean anomaly272.002°
Eccentric anomaly271.99132°
Mean motion3.58784 °/min
BSTAR0.00006517
Orbital period100.34 mins
Loading maneuver chart data...
Loading historical data...
Loading historical data...
Loading historical data...
Loading historical data...
Loading historical data...
Loading historical data...
Loading historical data...

IRIDIUM 156 Visibility forecast

Observer location: undefined°, undefined

Span
Click to sort rows by Start time (UTC) header in descending order
Start Az.
Max El. time (UTC)
Max El. Az.
Max El.
End time (UTC)
End Az.
9 mins2024-12-27 06:32:41.364Z13.017° NNE2024-12-27 06:36:41.364Z72.412° E35.183°2024-12-27 06:41:41.364Z155.263° SSE
5 mins2024-12-27 08:15:41.364Z303.526° NW2024-12-27 08:17:41.364Z274.165° WNW18.21°2024-12-27 08:20:41.364Z237.402° WSW
8 mins2024-12-27 19:29:41.364Z185.606° SSW2024-12-27 19:32:41.364Z220.264° SW44.4°2024-12-27 19:37:41.364Z0.522° NNE
|